DW5684 Weather Reports


Display with metric or nautical units.
time (UTC)temp
F
wind
direction
speed
MPH
gust
MPH
rain 1hr
in
rain 24hr
in
rain mn
in
humidity
%
barometer
mb
20260510034325 64 214 0.0 0.0 0.00 0.01 0.01 72 1012.7
20260510033820 65 214 0.0 0.0 0.00 0.01 0.01 72 1012.6
20260510033354 65 214 0.0 0.0 0.00 0.01 0.01 71 1012.4
20260510032828 65 214 0.0 0.0 0.00 0.01 0.01 72 1012.3
20260510032323 64 214 0.0 0.0 0.00 0.01 0.01 71 1012.5
20260510031818 64 214 0.0 0.0 0.00 0.01 0.01 75 1012.5
20260510031317 64 214 0.0 0.0 0.00 0.01 0.01 71 1012.5
20260510030831 64 214 0.0 0.0 0.00 0.01 0.01 72 1012.5
20260510030326 63 214 0.0 0.0 0.00 0.01 0.01 71 1012.5
20260510025822 63 214 0.0 0.0 0.00 0.01 0.01 72 1012.3
20260510025316 63 214 0.0 0.0 0.00 0.01 0.01 73 1012.3
20260510024831 63 214 0.0 0.0 0.00 0.01 0.01 75 1012.2
20260510024326 64 214 0.0 0.0 0.00 0.01 0.01 76 1012.1
20260510023821 64 214 0.0 0.0 0.00 0.01 0.01 76 1011.9
20260510023340 63 214 0.0 0.0 0.00 0.01 0.01 71 1011.8
20260510022814 63 214 0.0 0.0 0.00 0.01 0.01 73 1011.7
20260510022329 63 214 0.0 0.0 0.00 0.01 0.01 73 1011.7
20260510021824 63 214 0.0 0.0 0.00 0.01 0.01 72 1011.5
20260510021320 63 214 0.0 0.0 0.00 0.01 0.01 71 1011.4
20260510020815 64 214 0.0 0.0 0.00 0.01 0.01 70 1011.2
20260510020330 64 214 0.0 0.0 0.00 0.01 0.01 69 1011.2
20260510015825 65 214 0.0 0.0 0.00 0.01 0.01 68 1011.1
20260510015324 65 214 0.0 0.0 0.00 0.01 0.01 68 1010.9
20260510014816 66 214 0.0 0.0 0.00 0.01 0.01 68 1010.8
20260510014351 66 214 0.0 0.0 0.00 0.01 0.01 67 1010.6
20260510013824 66 214 0.0 0.0 0.00 0.01 0.01 67 1010.5
20260510013320 67 214 0.0 0.0 0.00 0.01 0.01 67 1010.4
20260510012815 67 214 0.0 0.0 0.00 0.01 0.01 66 1010.4
20260510012330 68 214 0.0 0.0 0.00 0.01 0.01 64 1010.3
20260510011825 69 214 0.0 0.0 0.00 0.01 0.01 63 1010.2
20260510011345 69 214 0.0 0.0 0.00 0.01 0.01 62 1010.2
20260510010819 70 214 0.0 0.0 0.00 0.01 0.01 61 1010.2
20260510010333 71 214 0.0 0.0 0.00 0.01 0.01 58 1010.2
20260510005828 72 214 0.0 0.0 0.00 0.01 0.01 57 1010.1
20260510005323 73 214 0.0 0.0 0.00 0.01 0.01 55 1010.1
20260510004816 74 214 0.0 0.0 0.00 0.01 0.01 53 1010.0
20260510004331 74 214 0.0 0.0 0.00 0.01 0.01 53 1010.0
20260510003845 75 214 0.0 0.0 0.00 0.01 0.01 51 1010.0
20260510003322 76 214 0.0 0.0 0.00 0.01 0.01 51 1009.9
20260510002818 76 217 0.0 0.0 0.00 0.01 0.01 50 1009.9
20260510002332 77 225 0.0 0.0 0.00 0.01 0.01 48 1009.9
20260510001846 77 226 0.0 0.0 0.00 0.01 0.01 49 1009.9
20260510001319 78 221 0.0 0.0 0.00 0.01 0.01 47 1009.8
20260510000832 79 221 0.0 0.0 0.00 0.01 0.01 46 1009.8
20260510000327 79 233 0.0 0.0 0.00 0.01 0.01 45 1009.9
20260509235822 80 223 0.0 2.0 0.00 0.01 0.01 43 1009.9
20260509235317 80 185 0.0 2.0 0.00 0.01 0.01 46 1010.0
20260509234815 80 222 0.0 0.0 0.00 0.01 0.01 45 1009.9
20260509234330 80 117 0.0 1.0 0.00 0.01 0.01 45 1009.9
20260509233825 80 225 0.0 3.0 0.00 0.01 0.01 43 1010.0
20260509233320 80 221 0.0 3.0 0.00 0.01 0.01 42 1010.0
20260509232815 81 224 1.0 2.0 0.00 0.01 0.01 42 1010.0
20260509232328 80 219 0.0 0.0 0.00 0.01 0.01 45 1010.0
20260509231823 80 186 0.0 3.0 0.00 0.01 0.01 45 1010.0
20260509231318 80 195 0.0 5.0 0.00 0.01 0.01 44 1009.9
20260509230853 80 143 0.0 4.0 0.00 0.01 0.01 44 1009.9
20260509230347 81 167 0.0 5.0 0.00 0.01 0.01 42 1009.9
20260509225825 81 207 2.0 5.0 0.00 0.01 0.01 40 1010.0
20260509225319 82 143 0.0 2.0 0.00 0.01 0.01 41 1009.9
20260509224854 82 160 0.0 4.0 0.00 0.01 0.01 41 1009.9
20260509224327 82 212 0.0 4.0 0.00 0.01 0.01 40 1010.0
20260509223822 83 219 0.0 3.0 0.00 0.01 0.01 39 1009.9
20260509223336 82 222 0.0 4.0 0.00 0.01 0.01 38 1010.0
20260509222828 83 205 1.0 4.0 0.00 0.01 0.01 36 1009.9
20260509222342 84 217 1.0 3.0 0.00 0.01 0.01 36 1009.9
20260509221816 85 214 0.0 3.0 0.00 0.01 0.01 35 1009.9
20260509221315 85 290 1.0 3.0 0.00 0.01 0.01 33 1010.0
20260509220830 85 284 0.0 0.0 0.00 0.01 0.01 37 1009.9
20260509220326 85 214 0.0 3.0 0.00 0.01 0.01 35 1009.9
20260509215821 84 307 1.0 5.0 0.00 0.01 0.01 32 1009.9
20260509215315 84 223 2.0 5.0 0.00 0.01 0.01 34 1009.9
20260509214829 84 237 0.0 3.0 0.00 0.01 0.01 36 1010.0
20260509214324 83 139 1.0 3.0 0.00 0.01 0.01 39 1010.0
20260509213818 83 217 0.0 3.0 0.00 0.01 0.01 37 1010.0
20260509213317 84 297 0.0 8.0 0.00 0.01 0.01 36 1010.0
20260509212831 84 322 2.0 8.0 0.00 0.01 0.01 35 1010.0
20260509212326 85 316 0.0 4.0 0.00 0.01 0.01 37 1010.0
20260509211818 85 58 0.0 2.0 0.00 0.01 0.01 38 1010.0
20260509211332 85 229 0.0 3.0 0.00 0.01 0.01 36 1010.1
20260509210846 85 79 0.0 3.0 0.00 0.01 0.01 35 1010.1
20260509210320 85 219 1.0 3.0 0.00 0.01 0.01 37 1010.2
20260509205814 84 200 0.0 3.0 0.00 0.01 0.01 40 1010.4
20260509205329 83 334 1.0 6.0 0.00 0.01 0.01 37 1010.4
20260509204827 84 309 2.0 6.0 0.00 0.01 0.01 36 1010.4
20260509204321 84 288 1.0 3.0 0.00 0.01 0.01 39 1010.5
20260509203816 84 313 0.0 5.0 0.00 0.01 0.01 40 1010.5
20260509203332 84 214 3.0 6.0 0.00 0.01 0.01 37 1010.5
20260509202827 84 309 2.0 6.0 0.00 0.01 0.01 35 1010.5
20260509202322 85 285 0.0 2.0 0.00 0.01 0.01 39 1010.6
20260509201817 85 255 0.0 1.0 0.00 0.01 0.01 39 1010.6
20260509201352 84 213 0.0 5.0 0.00 0.01 0.01 38 1010.7
20260509200824 84 210 1.0 5.0 0.00 0.01 0.01 38 1010.7
20260509200323 84 163 1.0 4.0 0.00 0.01 0.01 35 1010.7
20260509195817 84 297 1.0 4.0 0.00 0.01 0.01 37 1010.8
20260509195331 84 221 0.0 3.0 0.00 0.01 0.01 37 1010.8
20260509194826 84 240 1.0 5.0 0.00 0.01 0.01 39 1010.8
20260509194321 84 210 1.0 5.0 0.00 0.01 0.01 38 1010.9
20260509193816 84 217 1.0 5.0 0.00 0.01 0.01 36 1010.9
20260509193331 84 219 2.0 5.0 0.00 0.01 0.01 37 1010.9
20260509192829 84 131 0.0 3.0 0.00 0.01 0.01 36 1011.0
20260509192324 84 257 0.0 5.0 0.00 0.01 0.01 37 1011.0
20260509191819 84 217 1.0 5.0 0.00 0.01 0.01 33 1011.0
20260509191314 84 218 0.0 3.0 0.00 0.01 0.01 37 1011.0
20260509190849 82 195 0.0 6.0 0.00 0.01 0.01 38 1011.0
20260509190322 82 25 1.0 6.0 0.00 0.01 0.01 45 1010.9
20260509185818 82 274 0.0 4.0 0.00 0.01 0.01 38 1011.0
20260509185353 82 330 0.0 5.0 0.00 0.01 0.01 37 1011.0
20260509184827 81 331 2.0 8.0 0.00 0.01 0.01 40 1011.1
20260509184326 82 311 2.0 8.0 0.00 0.01 0.01 36 1011.1
20260509183820 82 274 0.0 5.0 0.00 0.01 0.01 36 1011.1
20260509183314 82 203 1.0 6.0 0.00 0.01 0.01 42 1011.1
20260509182829 82 278 1.0 6.0 0.00 0.01 0.01 39 1011.2
20260509182324 81 264 0.0 9.0 0.00 0.01 0.01 40 1011.1
20260509181839 82 281 2.0 9.0 0.00 0.01 0.01 38 1011.1
20260509181332 82 186 0.0 3.0 0.00 0.01 0.01 37 1011.2
20260509180825 81 203 0.0 6.0 0.00 0.01 0.01 42 1011.2
20260509180340 81 294 1.0 8.0 0.00 0.01 0.01 45 1011.2
20260509175818 80 352 1.0 7.0 0.00 0.01 0.01 43 1011.2
20260509175313 80 289 2.0 7.0 0.00 0.01 0.01 41 1011.2
20260509174828 81 322 3.0 7.0 0.00 0.01 0.01 45 1011.3
20260509174323 80 295 1.0 5.0 0.00 0.01 0.01 44 1011.4
20260509173837 79 294 2.0 9.0 0.00 0.01 0.01 43 1011.3
20260509173331 79 329 5.0 9.0 0.00 0.01 0.01 41 1011.4
20260509172826 79 259 2.0 7.0 0.00 0.01 0.01 43 1011.6
20260509172320 79 333 3.0 8.0 0.00 0.01 0.01 43 1011.6
20260509171818 79 281 3.0 7.0 0.00 0.01 0.01 42 1011.6
20260509171333 79 58 2.0 5.0 0.00 0.01 0.01 43 1011.6
20260509170828 79 284 1.0 4.0 0.00 0.01 0.01 47 1011.5
20260509170322 79 342 2.0 4.0 0.00 0.01 0.01 47 1011.5
20260509165817 79 8 0.0 5.0 0.00 0.01 0.01 46 1011.6
20260509165332 78 332 3.0 5.0 0.00 0.01 0.01 47 1011.6
20260509164827 79 255 2.0 5.0 0.00 0.01 0.01 45 1011.7
20260509164325 79 276 2.0 3.0 0.00 0.01 0.01 44 1011.7
20260509163820 79 234 0.0 3.0 0.00 0.01 0.01 47 1011.7
20260509163315 78 281 0.0 3.0 0.00 0.01 0.01 51 1011.7
20260509162850 78 287 2.0 4.0 0.00 0.01 0.01 50 1011.8
20260509162322 78 305 1.0 5.0 0.00 0.01 0.01 49 1011.8
20260509161837 78 330 1.0 5.0 0.00 0.01 0.01 53 1011.8
20260509161331 78 311 0.0 4.0 0.00 0.01 0.01 53 1011.8
20260509160826 78 240 0.0 4.0 0.00 0.01 0.01 53 1011.8
20260509160341 77 210 0.0 4.0 0.00 0.01 0.01 55 1011.8
20260509155819 77 212 1.0 4.0 0.00 0.01 0.01 55 1011.9
20260509155314 77 280 0.0 3.0 0.00 0.01 0.01 57 1011.9
20260509154829 76 222 1.0 3.0 0.00 0.01 0.01 57 1011.9
20260509154324 75 215 0.0 2.0 0.00 0.01 0.01 61 1011.8
20260509153819 75 289 1.0 4.0 0.00 0.01 0.01 60 1011.9
20260509153314 74 212 1.0 4.0 0.00 0.01 0.01 63 1011.8
20260509152348 74 293 0.0 3.0 0.00 0.01 0.01 66 1011.7
20260509151840 73 283 0.0 3.0 0.00 0.01 0.01 64 1011.8
20260509151318 73 315 0.0 3.0 0.00 0.01 0.01 67 1011.8
20260509150832 73 287 0.0 8.0 0.00 0.01 0.01 64 1011.7
20260509150327 73 276 1.0 5.0 0.00 0.01 0.01 62 1011.7
20260509145822 73 283 0.0 3.0 0.00 0.01 0.01 66 1011.7
20260509145316 72 195 0.0 6.0 0.00 0.01 0.01 67 1011.7
20260509144831 71 297 0.0 2.0 0.00 0.01 0.01 71 1011.7
20260509144346 71 293 0.0 4.0 0.00 0.01 0.01 68 1011.8
20260509143820 71 337 1.0 4.0 0.00 0.01 0.01 69 1011.8
20260509143317 71 217 1.0 4.0 0.00 0.01 0.01 71 1011.8
20260509142832 70 277 0.0 4.0 0.00 0.01 0.01 72 1011.7
20260509142327 70 226 1.0 3.0 0.00 0.01 0.01 74 1011.7
20260509141822 70 217 1.0 3.0 0.00 0.01 0.01 75 1011.7
20260509141316 69 224 1.0 3.0 0.00 0.01 0.01 75 1011.6
20260509140831 69 221 0.0 2.0 0.00 0.01 0.01 80 1011.6
20260509140325 69 259 1.0 2.0 0.00 0.01 0.01 81 1011.6
20260509135818 68 239 0.0 3.0 0.00 0.01 0.01 81 1011.5
20260509135313 67 241 1.0 3.0 0.00 0.01 0.01 82 1011.5
20260509134831 67 203 1.0 3.0 0.00 0.01 0.01 82 1011.4
20260509134326 66 219 1.0 3.0 0.00 0.01 0.01 83 1011.4
20260509133841 66 230 0.0 2.0 0.00 0.01 0.01 85 1011.4
20260509133315 65 278 0.0 1.0 0.00 0.01 0.01 87 1011.5
20260509132830 65 220 0.0 1.0 0.00 0.01 0.01 87 1011.5
20260509132323 64 198 0.0 3.0 0.00 0.01 0.01 90 1011.4
20260509131817 63 215 1.0 3.0 0.00 0.01 0.01 90 1011.4
20260509131332 62 208 1.0 4.0 0.00 0.01 0.01 90 1011.2
20260509130826 62 210 2.0 4.0 0.00 0.01 0.01 90 1011.2
20260509130325 62 288 0.0 4.0 0.00 0.01 0.01 91 1011.2
20260509125819 61 226 2.0 4.0 0.00 0.01 0.01 91 1011.3
20260509125314 61 224 1.0 3.0 0.00 0.01 0.01 92 1011.3
20260509124828 61 217 1.0 3.0 0.00 0.01 0.01 93 1011.3
20260509124343 60 214 0.0 2.0 0.00 0.01 0.01 94 1011.3
20260509123816 59 211 1.0 2.0 0.00 0.01 0.01 95 1011.1
20260509123331 58 215 0.0 0.0 0.00 0.01 0.01 96 1011.1
20260509122826 58 210 0.0 0.0 0.00 0.01 0.01 97 1011.1
20260509122344 57 215 0.0 1.0 0.00 0.01 0.01 97 1011.0
20260509121838 56 228 0.0 2.0 0.00 0.01 0.01 97 1011.0
20260509121332 56 225 0.0 3.0 0.00 0.01 0.01 97 1010.9
20260509120827 56 221 0.0 3.0 0.00 0.01 0.01 97 1011.0
20260509120342 55 216 1.0 3.0 0.00 0.01 0.01 97 1010.9
20260509115815 55 228 0.0 0.0 0.00 0.01 0.01 97 1010.8
20260509115330 55 230 0.0 0.0 0.00 0.01 0.01 97 1010.8
20260509114824 55 226 0.0 2.0 0.00 0.01 0.01 97 1010.9
20260509114318 55 205 0.0 2.0 0.00 0.01 0.01 97 1010.8
20260509113817 55 227 1.0 2.0 0.00 0.01 0.01 97 1010.8
20260509113332 55 223 0.0 3.0 0.00 0.01 0.01 96 1010.8
20260509112827 55 226 0.0 1.0 0.00 0.01 0.01 96 1010.8
20260509112321 55 226 0.0 0.0 0.00 0.01 0.01 96 1010.7
20260509111816 55 225 0.0 0.0 0.00 0.01 0.01 96 1010.6
20260509111331 55 218 0.0 0.0 0.00 0.01 0.01 96 1010.6
20260509110825 55 228 0.0 1.0 0.00 0.01 0.01 96 1010.6
20260509110323 56 228 0.0 2.0 0.00 0.01 0.01 96 1010.5
20260509105818 56 225 1.0 3.0 0.00 0.01 0.01 97 1010.6
20260509105314 56 207 1.0 3.0 0.00 0.01 0.01 97 1010.6
20260509104828 56 226 0.0 3.0 0.00 0.01 0.01 97 1010.6
20260509104323 56 229 1.0 3.0 0.00 0.01 0.01 97 1010.6
20260509103818 56 224 2.0 3.0 0.00 0.01 0.01 97 1010.6
20260509103314 56 215 1.0 3.0 0.00 0.01 0.01 97 1010.5
20260509102813 55 221 1.0 2.0 0.00 0.01 0.01 97 1010.5
20260509102328 55 222 0.0 1.0 0.00 0.01 0.01 97 1010.5
20260509101823 55 222 0.0 1.0 0.00 0.01 0.01 97 1010.5
20260509101317 55 219 0.0 2.0 0.00 0.01 0.01 97 1010.5
20260509100911 55 218 0.0 1.0 0.00 0.01 0.01 97 1010.4
20260509100318 55 214 0.0 0.0 0.00 0.01 0.01 96 1010.5
20260509095831 55 211 0.0 1.0 0.00 0.01 0.01 96 1010.5
20260509095345 55 223 0.0 3.0 0.00 0.01 0.01 96 1010.6
20260509094819 55 221 1.0 3.0 0.00 0.01 0.01 96 1010.7
20260509094313 55 227 0.0 0.0 0.00 0.01 0.01 96 1010.7
20260509093828 54 226 0.0 0.0 0.00 0.01 0.01 96 1010.6
20260509093327 54 225 0.0 1.0 0.00 0.01 0.01 96 1010.7
20260509092822 55 226 0.0 2.0 0.00 0.01 0.01 96 1010.7
20260509092317 55 214 0.0 2.0 0.00 0.01 0.01 96 1010.8
20260509091830 55 217 0.0 2.0 0.00 0.01 0.01 96 1010.7
20260509091345 55 218 1.0 2.0 0.00 0.01 0.01 95 1010.7
20260509090819 55 227 0.0 0.0 0.00 0.01 0.01 95 1010.7
20260509090333 55 209 0.0 2.0 0.00 0.01 0.01 95 1010.7
20260509085828 55 219 1.0 2.0 0.00 0.01 0.01 95 1010.6
20260509085322 55 216 0.0 0.0 0.00 0.01 0.01 95 1010.7
20260509084821 55 229 0.0 3.0 0.00 0.01 0.01 96 1010.6
20260509084316 55 217 0.0 3.0 0.00 0.01 0.01 96 1010.6
20260509083830 55 219 0.0 2.0 0.00 0.01 0.01 96 1010.6
20260509083324 55 214 0.0 2.0 0.00 0.01 0.01 96 1010.5
20260509082819 55 210 0.0 2.0 0.00 0.01 0.01 96 1010.4
20260509082314 55 216 0.0 0.0 0.00 0.01 0.01 96 1010.4
20260509081828 55 211 0.0 0.0 0.00 0.01 0.01 96 1010.4
20260509081323 55 224 0.0 0.0 0.00 0.01 0.01 95 1010.4
20260509080821 55 223 0.0 0.0 0.00 0.01 0.01 95 1010.4
20260509080316 55 224 0.0 1.0 0.00 0.01 0.01 96 1010.5
20260509075851 55 225 0.0 1.0 0.00 0.01 0.01 96 1010.5
20260509075325 55 210 0.0 1.0 0.00 0.01 0.01 96 1010.5
20260509074819 56 218 0.0 3.0 0.00 0.01 0.01 96 1010.6
20260509074313 56 216 1.0 3.0 0.00 0.01 0.01 96 1010.5
20260509073829 56 219 0.0 3.0 0.01 0.01 0.01 96 1010.5
20260509073323 56 221 1.0 4.0 0.01 0.01 0.01 96 1010.5
20260509072818 56 224 2.0 4.0 0.01 0.01 0.01 96 1010.4
20260509072316 56 217 1.0 3.0 0.01 0.01 0.01 96 1010.4
20260509071831 56 213 1.0 2.0 0.01 0.01 0.01 96 1010.5
20260509071326 56 218 0.0 2.0 0.01 0.01 0.01 97 1010.6
20260509070822 56 221 1.0 4.0 0.01 0.01 0.01 97 1010.6
20260509070317 56 218 2.0 4.0 0.01 0.01 0.01 97 1010.6
20260509065832 56 216 1.0 2.0 0.01 0.01 0.01 97 1010.5
20260509065347 56 205 0.0 1.0 0.01 0.01 0.01 97 1010.5
20260509064821 55 219 0.0 0.0 0.01 0.01 0.01 96 1010.4
20260509064320 55 219 0.0 0.0 0.01 0.01 0.01 96 1010.4
20260509063814 55 219 0.0 0.0 0.00 0.00 0.00 96 1010.4
20260509063329 55 218 0.0 0.0 0.00 0.00 0.00 96 1010.4
20260509062824 56 218 0.0 0.0 0.00 0.00 0.00 96 1010.6
20260509062321 56 237 0.0 0.0 0.00 0.00 0.00 96 1010.6
20260509061815 56 237 0.0 0.0 0.00 0.00 0.00 96 1010.5
20260509061329 56 237 0.0 0.0 0.00 0.00 0.00 96 1010.7
20260509060824 56 237 0.0 0.0 0.00 0.00 0.00 96 1010.6
20260509060321 56 237 0.0 1.0 0.00 0.00 0.00 97 1010.6
20260509055820 56 217 0.0 1.0 0.00 0.00 0.00 97 1010.6
20260509055314 56 219 0.0 1.0 0.00 0.00 0.00 97 1010.7
20260509054848 56 210 0.0 1.0 0.00 0.00 0.00 97 1010.7
20260509054321 55 223 0.0 0.0 0.00 0.00 0.00 97 1010.8
20260509053816 55 223 0.0 0.0 0.00 0.00 0.00 97 1010.8
20260509053331 54 206 0.0 0.0 0.00 0.00 0.00 96 1010.8
20260509052825 54 206 0.0 0.0 0.00 0.00 0.00 95 1010.8
20260509052319 55 206 0.0 0.0 0.00 0.00 0.00 95 1010.8
20260509051818 55 206 0.0 0.0 0.00 0.00 0.00 96 1010.7
20260509051313 55 206 0.0 0.0 0.00 0.00 0.00 95 1010.8
20260509050829 55 206 0.0 0.0 0.00 0.00 0.00 95 1010.8
20260509050323 55 206 0.0 0.0 0.00 0.00 0.00 95 1010.7
20260509045818 56 206 0.0 0.0 0.00 0.00 0.00 95 1010.8
20260509045334 56 206 0.0 0.0 0.00 0.00 0.00 95 1010.8
20260509044828 56 206 0.0 0.0 0.00 0.00 0.00 95 1010.7
20260509044343 56 206 0.0 0.0 0.00 0.00 0.00 95 1010.8
20260509043822 57 206 0.0 0.0 0.00 0.00 0.00 95 1010.8
20260509043315 57 206 0.0 0.0 0.00 0.00 0.00 95 1010.7
20260509042830 57 206 0.0 0.0 0.00 0.00 0.00 95 1010.7
20260509042345 57 198 0.0 0.0 0.00 0.00 0.00 94 1010.7
20260509041819 57 198 0.0 0.0 0.00 0.00 0.00 95 1010.7
20260509041313 57 198 0.0 0.0 0.00 0.00 0.00 95 1010.7
20260509040847 57 198 0.0 0.0 0.00 0.00 0.00 94 1010.6
20260509040321 57 137 0.0 0.0 0.00 0.00 0.00 94 1010.6
20260509035816 57 137 0.0 0.0 0.00 0.00 0.00 94 1010.6
20260509035334 57 137 0.0 0.0 0.00 0.00 0.00 93 1010.5
20260509034848 58 137 0.0 0.0 0.00 0.00 0.00 93 1010.5